www.pogodaiklimat.ru

Погода и климат >> Архив погоды >> Узбекистан >> Ташкент


АРХИВ ПОГОДЫ в Ташкенте

Время (UTC), дата Ветер
(напр.,м/с)
 
Видим.   Явления Облачность Т
(С)
Тd
(С)
f
(%)
Тe
(С)
Тes
(С)
Комфортность P
(гПа)
Po
(гПа)
Тmin
(С)
Tmax
(С)
R
(мм)
R24
(мм)
S
(см)
00 12.10 В 1 10 км ясно +11.0 +2.7 57 +11 +11 по сезону 1016.6 959.1
03 12.10 10 км ясно +14.8 +4.0 48 1016.7 959.9
06 12.10 штиль 0 10 км ясно +24.2 +0.4 21 +23 +33 комфорт 1015.3 960.3 +10.5
09 12.10 З 1 10 км ясно +26.8 +2.1 20 +25 +34 комфорт 1014.2 959.7
12 12.10 СЗ 1 10 км ясно +25.5 +4.5 26 +25 +25 комфорт 1014.8 960.1
15 12.10 В 1 10 км ясно +16.8 +9.5 62 +18 +18 тепло 1016.1 959.8 +27.6
18 12.10 СВ 1 10 км ясно +13.8 +7.0 64 +14 +14 тепло 1016.5 959.6 +27.6
21 12.10 СВ 1 10 км ясно +14.7 +1.1 40 +15 +15 тепло 1015.8 959.0
00 13.10 В 2 10 км ясно +14.8 +0.4 37 +15 +15 тепло 1015.5 958.7
03 13.10 В 1 10 км ясно +16.1 +3.2 42 +17 +18 тепло 1015.5 959.0
06 13.10 штиль 0 10 км ясно +25.2 +2.5 23 +24 +34 комфорт 1013.9 959.2 +12.7
09 13.10 З 1 10 км ясно +28.9 -1.2 14 +26 +34 жарко 1011.9 957.9
12 13.10 СЗ 1 10 км ясно +28.0 +2.9 20 +26 +27 жарко 1010.9 956.8
15 13.10 СЗ 1 10 км ясно +19.1 +6.5 44 +21 +21 комфорт 1012.6 956.8 +30.0
18 13.10 В 2 10 км ясно +14.8 +6.8 59 +15 +15 тепло 1013.1 956.6 +30.0
21 13.10 В 1 10 км ясно +13.7 +6.7 63 +14 +14 тепло 1012.8 956.1
00 14.10 СВ 1 10 км ясно +13.9 +3.8 51 +14 +14 тепло 1012.3 955.6
03 14.10 СВ 1 10 км 8/0
[Ci fib]
+14.9 +5.0 52 +16 +16 тепло 1013.6 957.1
06 14.10 Ю 1 10 км мгла 9/0
[Ac lent Ci fib]
+20.7 +5.6 37 +23 +27 комфорт 1014.5 958.9 +12.6
09 14.10 З 2 10 км 9/0
[Cs]
+23.4 +4.5 29 +23 +29 комфорт 1013.9 958.9
12 14.10 СЗ 1 10 км 9/4 1000 м
[Sc Ac lent Ci fib]
+22.1 +4.6 32 +22 +23 комфорт 1014.9 959.6
15 14.10 СЗ 1 10 км 9/6 600 м
[Sc Ac lent]
+19.0 +6.1 43 +21 +21 комфорт 1016.1 960.2 +23.8
18 14.10 СВ 1 10 км 4/0
[Ci fib]
+14.2 +9.3 72 +15 +15 тепло 1017.0 960.2 +23.8
21 14.10 СВ 1 10 км ясно +13.0 +5.8 62 +13 +13 тепло 1016.9 959.8
00 15.10 С 1 10 км ясно +12.6 +6.2 65 +13 +13 тепло 1016.5 959.3
03 15.10 В 1 10 км 9/0
[Ac lent]
+13.9 +7.1 64 +14 +15 по сезону 1016.9 960.0
06 15.10 СВ 1 10 км ясно +20.9 +6.5 39 +23 +31 комфорт 1015.0 959.5 +10.5
09 15.10 ЮВ 1 10 км ясно +25.0 +4.5 27 +24 +32 комфорт 1012.7 958.0
12 15.10 СЗ 1 10 км ясно +24.2 +4.3 28 +24 +24 комфорт 1011.9 957.1
15 15.10 С 1 10 км ясно +17.6 +7.6 52 +19 +19 тепло 1012.9 956.8 +25.6
18 15.10 ЮВ 1 10 км 1/0
[Ac trans]
+13.8 +6.8 63 +14 +14 тепло 1012.9 956.2 +25.6
21 15.10 СВ 1 10 км 9/0
[Ac trans]
+13.9 +7.0 63 +14 +14 тепло 1012.0 955.4
00 16.10 штиль 0 10 км 9/9 600 м
[Sc]
+13.6 +6.8 63 +13 +13 тепло 1011.8 955.1
03 16.10 ЮВ 2 10 км в посл. час дождь {ливн. осадки} 9/9 1000 м
[Cb calv]
+16.3 +8.2 59 +16 +17 тепло 1012.4 956.2
06 16.10 Ю 2 10 км {ливн. осадки} 9/0
[Ac lent Ci fib]
+22.0 +6.5 37 +23 +25 комфорт 1011.5 956.4 +12.9 0.1
09 16.10 Ю 1 10 км 9/6 600 м
[Sc Ac lent]
+22.0 +6.2 36 +23 +24 комфорт 1012.5 957.3
12 16.10 ЮВ 1 10 км 8/0
[Ac lent Ci fib]
+22.0 +5.6 34 +22 +23 комфорт 1012.6 957.4
15 16.10 В 1 10 км 3/0
[Ci fib]
+16.1 +5.9 51 +17 +17 тепло 1014.1 957.7 +22.9
18 16.10 В 1 10 км 3/0
[Ci fib]
+15.4 +5.6 52 +16 +16 тепло 1013.3 956.9 +22.9 0.0
21 16.10 В 1 10 км 3/0
[Ci fib]
+15.5 +4.1 47 +16 +16 тепло 1012.0 955.6
00 17.10 В 1 10 км ясно +15.6 +3.0 43 +16 +16 тепло 1011.0 954.7
03 17.10 В 1 10 км ясно +17.8 +3.0 37 +19 +20 тепло 1009.9 954.0
06 17.10 штиль 0 10 км 1/0
[Ci fib]
+26.5 +1.5 20 +25 +34 комфорт 1007.3 953.2 +15.0
09 17.10 СВ 1 10 км 9/0
[Ci fib]
+29.6 +4.5 20 +26 +33 жарко 1004.6 951.1
12 17.10 штиль 0 50 км 4/1 1000 м
[Cu hum Ci fib]
+28.0 +4.0 22 +27 +27 жарко 1003.7 950.0
15 17.10 В 1 10 км ясно +19.7 +3.0 33 +21 +21 комфорт 1004.1 948.9 +30.6
18 17.10 З 5 1000 м пыльная буря {метель} 10/10 1000 м
[Cb calv]
+19.2 +5.6 41 +19 +19 тепло 1007.4 951.9 +30.6
21 17.10 З 2 4000 м ливневой дождь {метель} 10/10 600 м
[Cb calv]
+11.5 +6.8 73 +10 +10 по сезону 1018.1 960.6
00 18.10 СВ 2 4000 м дождь {ливн. осадки} 10/0
[As op]
+8.3 +7.0 92 +6 +6 по сезону 1020.7 962.5
03 18.10 ЮВ 1 4000 м дождь 10/10 300 м
[Frnb Ns]
+7.6 +6.2 91 +7 +7 холодно 1023.3 964.7
06 18.10 Ю 2 50 км {дождь} 10/10 600 м
[Sc]
+9.4 +4.1 69 +8 +8 очень
холодно
1023.4 965.2 +7.3 8
09 18.10 Ю 2 50 км 8/8 1000 м
[Cu hum]
+13.1 +2.3 48 +13 +14 холодно 1022.3 964.9
12 18.10 Ю 2 10 км 8/8 1000 м
[Cb cap]
+12.7 +2.7 51 +12 +12 холодно 1023.2 965.6
15 18.10 ЮВ 1 10 км 9/9 1000 м
[Cu Sc]
+11.5 +3.6 58 +12 +12 прохладно 1025.0 967.1 +13.8
18 18.10 штиль 0 10 км 8/8 1000 м
[Cu Sc]
+9.2 +5.1 76 +9 +9 по сезону 1026.0 967.6 +13.8 0.4
21 18.10 штиль 0 10 км слабый дождь 10/0 600 м
[As op]
+9.3 +4.3 71 +9 +9 по сезону 1028.2 969.6

 

Местоположение метеостанции Ташкент (Ташкентская область, Узбекистан): широта 41.27 долгота 69.27 высота над уровнем моря 466 м.

В архиве по умолчанию представлена погода в Ташкенте за последнюю неделю. Архивные данные за месяц целиком и за предыдущие месяцы, начиная с января 2011 года, Вы можете получить, выбрав интересующий диапазон дат из раскрывающегося списка и нажав кнопку "Ввод!".

Внимание! Время в таблицах - всемирное. Для получения местного времени необходимо прибавить поправку, которая в Ташкенте равна 5 ч.

Смотрите также архив погоды в соседних городах и на ближайших метеорологических станциях:

Погода в Каунчи (Ташкентская область, Узбекистан) (31 км)
Погода в Туябугузе (Ташкентская область, Узбекистан) (37 км)
Погода в Келесе (Южно-Казахстанская область, Казахстан) (38 км)
Погода в Красноярской (Южно-Казахстанская область, Казахстан) (54 км)
Погода в Казыгурте (Южно-Казахстанская область, Казахстан) (55 км)
Погода в Дуканте (Ташкентская область, Узбекистан) (68 км)
Погода в Чимгане (Ташкентская область, Узбекистан) (70 км)
Погода в Сырдарье (Сырдарьинская область, Узбекистан) (70 км)
Погода в Ангрене (Ташкентская область, Узбекистан) (82 км)
Погода в Жетысае (Южно-Казахстанская область, Казахстан) (96 км)

Пояснения к столбцам:

Ветер - указаны скорость ветра в м/с - средняя за 10 мин, порывы в срок и между сроками (в фигурных скобках) и направление, откуда дует ветер: С - северный, СВ - северо-восточный, В - восточный, ЮВ - юго-восточный, Ю - южный, ЮЗ - юго-западный, З - западный, СЗ - северо-западный.
Видимость - горизонтальная дальность видимости в метрах или километрах. При видимости от 1 до 10 км при отсутствии осадков обычно наблюдается дымка, при ухудшении видимости до 1 км и менее - туман. В сухую погоду видимость может ухудшаться дымом, пылью или мглою.
Явления - указаны атмосферные явления, наблюдавшиеся в срок или в последний час перед сроком; фигурными скобками обозначены явления, наблюдавшиеся между сроками (за 1-3 часа до срока); квадратными скобками обозначены град или гололедные отложения с указанием их диаметра в мм.
Облачность - указаны через наклонную черту общая и нижняя облачность в баллах и высота нижней границы облаков в метрах; квадратными скобками обозначены формы облаков: Ci - перистые, Cs - перисто-слоистые, Cc - перисто-кучевые, Ac - высококучевые, As - высокослоистые, Sc - слоисто-кучевые, Ns - слоисто-дождевые, Cu - кучевые, Cb - кучево-дождевые. Подробнее классификацию облаков см. в Атласе облаков (PDF).
T - Температура воздуха - температура, измеренная на высоте 2 м над землей.
Td - Температура точки росы - температура, при понижении до которой содержащийся в воздухе водяной пар достигнет насыщения.
f - Относительная влажность воздуха - влажноcть воздуха, измеренная на высоте 2 м над землей.
Te - Эффективная температура - температура, которую ощущает одетый по сезону человек в тени. Характеристика душности погоды. При расчете учитывается влияние влажности воздуха и скорости ветра на теплоощущения человека.
Tes - Эффективная температура на солнце - температура, которую ощущает человек, с поправкой на солнечный нагрев. Характеристика знойности погоды. Зависит от высоты солнца над горизонтом, облачности и скорости ветра. Ночью, в пасмурную погоду, а также при ветре 12 м/с и более поправка равна нулю.
P - Атмосферное давление - приведенное к уровню моря атмосферное давление.
Po - Атмосферное давление - измеренное на уровне метеостанции атмосферное давление.
Tmin - Минимальная температура - минимум температуры воздуха на высоте 2 м над землей.
Tmax - Максимальная температура - максимум температуры воздуха на высоте 2 м над землей.
R - Количество осадков - Количество выпавших осадков за период времени, мм. При наведении курсора мыши на число - период времени, за который выпало указанное количество осадков.
R24 - Количество осадков - Количество выпавших осадков за 24 часа, мм.
S - Снежный покров - Высота снежного покрова, см. При наведении курсора мыши на число - состояние снежного покрова и степень покрытия местности в баллах.